Regional Weather Roundup
Issued by NWS Little Rock, AR

Home | Current Version | Previous Version | Graphics & Text | Print | Product List | Glossary On
Versions: 1 2 3 4 5 6 7 8 9 10 11 12 13 14 15 16 17 18 19 20 21 22 23 24 25 26 27 28 29 30 31 32 33 34 35 36 37 38 39 40 41 42 43 44 45 46 47 48 49 50
000
ASUS44 KLZK 282305
RWRLZK

WEATHER ROUNDUP FOR ARKANSAS
NATIONAL WEATHER SERVICE LITTLE ROCK AR
600 PM CDT SAT MAR 28 2015

NOTE: "FAIR" INDICATES FEW OR NO CLOUDS BELOW 12,000 FEET WITH NO
SIGNIFICANT WEATHER AND/OR OBSTRUCTIONS TO VISIBILITY.

ARZ001-003-010-029-290000-
NORTHWEST ARKANSAS

CITY           SKY/WX    TMP DP  RH WIND       PRES   REMARKS
FAYETTEVILLE   SUNNY     57  42  57 S13       30.09R
FORT SMITH     SUNNY     54  40  59 E18G25    30.11R
HARRISON       SUNNY     48  33  56 E12       30.15R
BENTONVILLE    SUNNY     61  39  44 SE5       30.09R
ROGERS         SUNNY     58  39  49 E12       30.09S
SILOAM SPGS    SUNNY     61  39  44 S9        30.09R
HIGHFILL       SUNNY     61  41  47 SE10      30.07S
SPRINGDALE     SUNNY     59  39  47 SE8       30.10S
$$

ARZ004-005-016-290000-
NORTH CENTRAL ARKANSAS

CITY           SKY/WX    TMP DP  RH WIND       PRES   REMARKS
BATESVILLE     CLOUDY    37  32  81 SE6       30.28R
FLIPPIN        CLOUDY    39  28  65 E13       30.21S
MTN HOME       CLOUDY    38  31  76 E12       30.21S
$$

ARZ040-041-290000-
WEST CENTRAL ARKANSAS

CITY           SKY/WX    TMP DP  RH WIND       PRES   REMARKS
MENA           SUNNY     68  43  40 SE5       30.09R
MOUNT IDA      SUNNY     56  40  55 E9        30.11R
$$

ARZ009-017-025-026-028-290000-
NORTHEAST ARKANSAS

CITY           SKY/WX    TMP DP  RH WIND       PRES   REMARKS
CORNING          N/A     41  32  70 S6        30.29R
JONESBORO      CLOUDY    40  29  64 E6        30.28S
NEWPORT        CLOUDY    40  33  76 SE7       30.30R
BLYTHEVILLE    CLOUDY    43  24  47 CALM      30.28S
$$

ARZ022-023-033-042-044-290000-
CENTRAL ARKANSAS

CITY           SKY/WX    TMP DP  RH WIND       PRES   REMARKS
LITTLE ROCK    MOSUNNY   49  30  48 E13       30.24R
N LITTLE ROCK  MOSUNNY   48  34  58 E10G20    30.24R
JACKSONVILLE   SUNNY     48  31  50 E9        30.24R
SEARCY         CLOUDY    42  35  76 E9        30.29R
HOT SPRINGS    SUNNY     54  37  52 E14       30.17R
RUSSELLVILLE   SUNNY     52  35  52 E13       30.19R
CLINTON        FAIR      46  32  57 E8        30.25R
$$

ARZ036-290000-
EAST ARKANSAS

CITY           SKY/WX    TMP DP  RH WIND       PRES   REMARKS
WEST MEMPHIS   CLOUDY    42  28  57 SE3       30.27S
$$

ARZ050-053-066-070-073-290000-
SOUTHWEST ARKANSAS

CITY           SKY/WX    TMP DP  RH WIND       PRES   REMARKS
ARKADELPHIA    FAIR      58  44  59 NE12      30.16R
CAMDEN         SUNNY     63  37  39 MISG      30.15R
TEXARKANA      SUNNY     70  46  42 E9        30.06R
EL DORADO      SUNNY     63  42  46 E13       30.12R
DE QUEEN       SUNNY     68  45  43 SE7       30.05S
$$

ARZ056-057-069-290000-
SOUTHEAST ARKANSAS

CITY           SKY/WX    TMP DP  RH WIND       PRES   REMARKS
PINE BLUFF     SUNNY     50  34  54 E13       30.23R
STUTTGART      SUNNY     45  28  53 E13       30.26R
MONTICELLO     SUNNY     53  33  46 E14       30.20S

$$





USA.gov is the U.S. government's official web portal to all federal, state and local government web resources and services.